Home > Weather > Chiclayo > Past weeks

Flag for Peru Past Weather in Chiclayo, Lambayeque, Peru — Yesterday and Last 2 Weeks

Now
64 °F

Clear.


Feels Like: 64 °F
Forecast: 63 / 73 °F
Wind: 2 mph from South

Location: Chiclayo Airport

Current Time: Jul 23, 2016 at 4:23:24 AM

Latest Report: Jul 23, 2016 at 4:00 AM


Visibility: 10 mi

Pressure: 29.95 "Hg

Humidity: 88%

Dew Point: 61 °F

Location of ChiclayoLocation

Past Weather in Chiclayo — Graph

°F

Chiclayo Temperature Yesterday

Maximum temperature yesterday: 81 °F (at 3:00 PM)
Minimum temperature yesterday: 68 °F (at 12:00 AM)
Average temperature yesterday: 71 °F

High & Low Weather Summary for the Past Weeks

 TemperatureHumidityPressure
High81 °F (Jul 22, 3:00 PM)100% (Jul 8, 3:00 AM)30.04 "Hg (Jul 8, 3:00 AM)
Low63 °F (Jul 8, 3:00 AM)58% (Jul 22, 3:00 PM)29.83 "Hg (Jul 19, 3:00 PM)
Average68 °F81%29.94 "Hg
* Reported Jul 8 3:00 AM — Jul 23 3:00 AM, Chiclayo, Weather by CustomWeather, © 2016

Note: Actual official high and low records may vary slightly from our data, if they occured in-between our weather recording intervals... More about our weather records

Advertising

Chiclayo Weather History for the Previous 24 Hours

Scroll right to see more
 ConditionsComfort  
Time TempWeatherWind HumidityBarometerVisibility
3:00 AM
Sat, Jul 23
64 °FClear.5 mph94%29.95 "Hg10 mi
2:00 AM66 °FClear.3 mph83%29.95 "Hg10 mi
1:00 AM66 °FClear.8 mph83%29.95 "Hg10 mi
12:00 AM66 °FClear.9 mph83%29.98 "Hg10 mi
11:00 PM
Fri, Jul 22
68 °FClear.8 mph78%29.98 "Hg10 mi
10:00 PM68 °FClear.10 mph78%29.98 "Hg10 mi
9:00 PM68 °FClear.13 mph83%29.98 "Hg10 mi
8:00 PM68 °FClear.14 mph83%29.98 "Hg10 mi
7:00 PM70 °FClear.16 mph83%29.95 "Hg10 mi
6:00 PM72 °FSunny.15 mph73%29.92 "Hg10 mi
5:00 PM73 °FSunny.15 mph69%29.89 "Hg10 mi
4:00 PM75 °FPassing clouds.13 mph65%29.89 "HgN/A
3:00 PM81 °FPassing clouds.2 mph58%29.89 "HgN/A
2:00 PM77 °FPartly sunny.2 mph65%29.92 "HgN/A
1:00 PM75 °FOvercast.5 mph65%29.95 "HgN/A
12:00 PM75 °FOvercast.5 mph65%29.98 "HgN/A
11:00 AM75 °FOvercast.2 mph65%30.01 "HgN/A
10:00 AM73 °FOvercast.3 mph74%30.01 "HgN/A
9:00 AM72 °FOvercast.2 mph78%30.01 "HgN/A
8:00 AM70 °FOvercast.5 mph83%30.01 "HgN/A
7:00 AM68 °FOvercast.6 mph83%30.01 "HgN/A
6:00 AM68 °FOvercast.3 mph83%29.98 "HgN/A
5:00 AM68 °FOvercast.3 mph83%29.98 "HgN/A
4:00 AM68 °FOvercast.2 mph83%29.98 "HgN/A
Weather by CustomWeather, © 2016

See weather overviewHow to use our weather pages